[[{"header":{"parameterUnit":"m.s-1","parameterCategory":1,"la1":30.2992,"la2":30.254,"lo1":-89.0895,"lo2":-89.0443,"dy":0.0025,"dx":0.0025,"nx":19,"ny":19,"refTime":"2026-05-19T09:00:00:Z","depth":0,"parameterNumber":2,"parameterNumberName":"U-component_of_WINDS"},"data":[0,0,0,-3.2804,-3.2807,-3.2942,-3.2942,-3.3121,-3.3122,0,0,0,0,0,0,0,0,0,0,0,-3.2767,-3.2768,-3.2804,-3.2807,-3.2942,-3.2942,-3.312,-3.3122,0,0,0,0,0,0,0,0,0,0,0,-3.2766,-3.2768,-3.2769,-3.2808,-3.2941,-3.2942,-3.312,-3.3016,0,0,0,0,0,0,0,0,0,0,-3.2884,-3.2853,-3.2767,-3.2769,-3.2808,-3.2941,-3.2942,-3.3011,-3.3023,-3.3062,0,-3.3097,0,-3.3113,-3.3135,-3.3135,0,0,0,-3.2805,-3.2843,-3.2877,-3.277,-3.281,-3.2941,-3.288,-3.3018,-3.3031,-3.3078,-3.31,-3.3106,-3.3116,-3.3136,-3.3137,-3.337,-3.3371,0,0,-3.2797,-3.2793,-3.2868,-3.2886,-3.2864,-3.2876,-3.2884,-3.3025,-3.3049,-3.31,-3.311,-3.3119,-3.3137,-3.3139,-3.3368,-3.337,0,0,0,-3.2777,-3.2787,-3.2818,-3.2878,-3.2902,-3.288,-3.289,-3.3043,-3.3053,-3.3112,-3.3121,-3.3138,-3.314,-3.3367,-3.3369,-3.3422,0,0,0,-3.2773,-3.2776,-3.2814,-3.2813,-3.29,-3.2974,-3.2904,-3.3044,-3.306,-3.312,-3.3138,-3.3142,-3.3366,-3.3368,-3.3417,-3.3447,0,0,0,-3.2757,-3.2774,-3.2794,-3.2812,-3.287,-3.2972,-3.299,-3.3047,-3.3065,-3.3135,-3.3143,-3.3365,-3.3368,-3.3414,-3.3441,-3.3506,0,0,0,-3.2739,-3.2839,-3.2795,-3.2911,-3.2869,-3.3004,-3.2989,-3.309,-3.3157,-3.3139,-3.3366,-3.3369,-3.3412,-3.3437,-3.3502,-3.356,-3.3583,0,0,-3.2863,-3.2854,-3.2923,-3.2887,-3.3029,-3.2984,-3.3134,-3.32,-3.3211,-3.3316,-3.3322,-3.3419,-3.344,-3.3506,-3.3721,-3.3739,0,0,0,-3.2961,-3.301,-3.3049,-3.3112,-3.3165,-3.3213,-3.3257,-3.3282,-3.3371,-3.3264,-3.3461,-3.3474,-3.3513,-3.354,-3.3556,-3.3589,-3.3382,-3.3381,-3.3381,-3.3128,-3.3138,-3.3253,-3.328,-3.3342,-3.3387,-3.3438,-3.3479,-3.3471,-3.3518,-3.3548,-3.3677,-3.3709,-3.3721,-3.3756,-3.358,-3.3581,-3.3581,-3.3581,-3.331,-3.3381,-3.337,-3.3476,-3.3487,-3.3577,-3.3626,-3.3617,-3.3703,-3.3655,-3.3689,-3.3633,-3.3742,-3.3772,-3.3585,-3.3584,-3.3584,-3.3584,-3.3583,-3.342,-3.3456,-3.3485,-3.3578,-3.365,-3.3674,-3.3758,-3.3765,-3.3772,-3.3806,-3.3839,-3.3838,-3.3837,-3.3822,-3.3822,-3.3823,-3.3823,-3.3824,-3.3824,-3.3521,-3.3552,-3.3621,-3.3688,-3.373,-3.3787,-3.3835,-3.3877,-3.3926,-3.3924,-3.3925,-3.3912,-3.3751,-3.3709,-3.3831,-3.3829,-3.3829,-3.3828,-3.3827,-3.3699,-3.366,-3.3767,-3.3809,-3.3889,-3.396,-3.3969,-3.4055,-3.4091,-3.4132,-3.4113,-3.3993,-3.3985,-3.3972,-3.3938,-3.4111,-3.4111,-3.4111,-3.4111,-3.379,-3.3787,-3.3898,-3.3966,-3.4033,-3.4053,-3.4174,-3.4214,-3.4249,-3.4272,-3.4249,-3.4205,-3.4192,-3.4191,-3.4173,-3.4141,-3.4362,-3.4363,-3.4363,-3.39,-3.3904,-3.4005,-3.4038,-3.4102,-3.4156,-3.4271,-3.435,-3.4382,-3.4373,-3.4291,-3.428,-3.4209,-3.4185,-3.4171,-3.4144,-3.4086,0,0]},{"header":{"parameterUnit":"m.s-1","parameterCategory":1,"la1":30.2992,"la2":30.254,"lo1":-89.0895,"lo2":-89.0443,"dy":0.0025,"dx":0.0025,"nx":19,"ny":19,"refTime":"2026-05-19T09:00:00:Z","depth":0,"parameterNumber":3,"parameterNumberName":"V-component_of_WINDS"},"data":[0,0,0,2.1863,2.1864,2.1878,2.1878,2.1902,2.1902,0,0,0,0,0,0,0,0,0,0,0,2.1863,2.1864,2.1863,2.1864,2.1878,2.1878,2.1902,2.1902,0,0,0,0,0,0,0,0,0,0,0,2.1863,2.1864,2.1864,2.1864,2.1878,2.1878,2.1902,2.1889,0,0,0,0,0,0,0,0,0,0,2.1874,2.1878,2.1863,2.1864,2.1864,2.1878,2.1878,2.1888,2.189,2.1898,0,2.1908,0,2.1905,2.1904,2.1904,0,0,0,2.186,2.1877,2.1877,2.1864,2.1864,2.1878,2.187,2.1889,2.1891,2.1901,2.1908,2.1909,2.1906,2.1904,2.1905,2.197,2.197,0,0,2.1859,2.1868,2.1876,2.1879,2.1877,2.187,2.1871,2.189,2.1898,2.1908,2.1909,2.1906,2.1905,2.1905,2.1969,2.197,0,0,0,2.186,2.1867,2.1867,2.1878,2.188,2.187,2.1871,2.1897,2.1897,2.1909,2.1907,2.1905,2.1905,2.1969,2.1969,2.2001,0,0,0,2.1859,2.1867,2.1867,2.1872,2.188,2.1889,2.1879,2.1895,2.1897,2.1906,2.1905,2.1905,2.1968,2.1969,2.1999,2.2014,0,0,0,2.1861,2.1867,2.1871,2.1872,2.1879,2.1888,2.1888,2.1895,2.1896,2.1904,2.1906,2.1968,2.1969,2.1997,2.2011,2.2035,0,0,0,2.1865,2.1897,2.1872,2.1907,2.1879,2.1908,2.1888,2.1909,2.1921,2.1905,2.1968,2.1969,2.1997,2.2009,2.2033,2.2056,2.2067,0,0,2.191,2.1903,2.1924,2.1901,2.1937,2.1905,2.1946,2.1948,2.1941,2.196,2.1962,2.2,2.2011,2.2034,2.2122,2.213,0,0,0,2.1941,2.1956,2.1963,2.1975,2.1979,2.1983,2.1978,2.1979,2.1996,2.1953,2.2014,2.2021,2.2034,2.2045,2.2052,2.2063,2.1974,2.1974,2.1974,2.2016,2.2007,2.204,2.2034,2.2045,2.2042,2.205,2.2051,2.2036,2.2052,2.2057,2.2111,2.2124,2.213,2.2142,2.2068,2.2069,2.2069,2.2069,2.2082,2.2102,2.2085,2.2111,2.2102,2.2123,2.2122,2.2111,2.213,2.2106,2.2117,2.2091,2.2139,2.2149,2.2071,2.2071,2.207,2.207,2.207,2.213,2.2138,2.2141,2.2159,2.2174,2.2166,2.2186,2.2176,2.2166,2.2178,2.2183,2.2183,2.2181,2.2181,2.2181,2.2181,2.2182,2.2182,2.2182,2.2179,2.2181,2.2199,2.2208,2.2216,2.2225,2.2223,2.223,2.2236,2.2227,2.2227,2.2212,2.2146,2.2129,2.2185,2.2184,2.2184,2.2184,2.2183,2.225,2.2233,2.2262,2.227,2.228,2.2297,2.2285,2.2301,2.2305,2.2316,2.2299,2.2252,2.2243,2.2238,2.2224,2.2301,2.2301,2.2301,2.2301,2.2291,2.2286,2.2315,2.2329,2.2341,2.2334,2.2368,2.2368,2.2364,2.2367,2.2354,2.2336,2.2331,2.2325,2.2317,2.2305,2.24,2.24,2.24,2.2334,2.2331,2.2361,2.2359,2.2368,2.2375,2.2407,2.2424,2.2416,2.2404,2.2369,2.2365,2.2335,2.2325,2.2311,2.2299,2.2276,0,0]}]]